DW3383 Weather Reports


time (UTC)temp
F
wind
direction
speed
knots
gust
knots
rain 1hr
in
rain 24hr
in
rain mn
in
humidity
%
barometer
mb
20260906130805 38 282 2.6 2.6 0.00 0.00 0.00 98 1016.8
20260906130305 38 276 2.6 2.6 0.00 0.00 0.00 98 1016.7
20260906120805 38 271 2.6 2.6 0.00 0.00 0.00 98 1016.8
20260906120305 38 268 2.6 4.3 0.00 0.00 0.00 97 1016.8
20260906110806 40 273 2.6 5.2 0.00 0.00 0.00 97 1016.5
20260906100306 42 283 5.2 6.1 0.00 0.00 0.00 94 1015.8
20260906090805 44 132 4.3 6.1 0.00 0.00 0.00 91 1015.4
20260906090305 44 281 2.6 6.1 0.00 0.00 0.00 92 1015.4
20260906080805 46 271 1.7 4.3 0.00 0.00 0.00 89 1015.2
20260906080305 46 335 2.6 4.3 0.00 0.00 0.00 88 1015.2
20260906070812 50 21 1.7 4.3 0.00 0.00 0.00 81 1014.7
20260906070305 50 272 4.3 5.2 0.00 0.00 0.00 81 1014.6
20260906060805 53 265 2.6 4.3 0.00 0.00 0.00 76 1014.0
20260906060305 53 142 0.9 2.6 0.00 0.00 0.00 75 1014.0
20260906050305 58 77 0.0 2.6 0.00 0.00 0.00 66 1013.3
20260906040805 61 97 0.9 2.6 0.00 0.00 0.00 60 1012.8
20260906040306 62 77 0.9 2.6 0.00 0.00 0.00 60 1012.8
20260906020806 70 47 1.7 2.6 0.00 0.00 0.00 42 1012.2
20260906020305 70 3 1.7 5.2 0.00 0.00 0.00 42 1012.3
20260906010805 72 22 1.7 2.6 0.00 0.00 0.00 40 1012.1
20260906000805 71 39 1.7 1.7 0.00 0.00 0.00 48 1012.5
20260906000305 71 356 0.9 2.6 0.00 0.00 0.00 46 1012.4
20260905230805 66 60 0.9 0.9 0.00 0.00 0.00 50 1013.0
20260905220805 66 356 0.0 2.6 0.00 0.00 0.00 50 1013.2
20260905220306 66 70 0.9 4.3 0.00 0.00 0.00 50 1013.2
20260905210805 64 92 0.9 2.6 0.00 0.00 0.00 49 1013.6
20260905210305 64 1 0.9 2.6 0.00 0.00 0.00 50 1013.7
20260905200306 61 77 0.9 2.6 0.00 0.00 0.00 53 1013.7
20260905190306 58 38 0.0 2.6 0.00 0.00 0.00 63 1014.1
20260905180805 52 318 0.9 1.7 0.00 0.00 0.00 74 1014.6
20260905180305 52 10 0.0 7.0 0.00 0.00 0.00 74 1014.7
20260905170804 45 264 1.7 5.2 0.00 0.00 0.00 91 1015.4
20260905170305 44 274 0.9 5.2 0.00 0.00 0.00 93 1015.4
20260905160805 40 270 4.3 6.1 0.00 0.00 0.00 99 1016.0
20260905160306 39 130 4.3 6.1 0.00 0.00 0.00 99 1016.0
20260905150805 35 239 2.6 4.3 0.00 0.00 0.00 99 1016.3
20260905150305 35 128 1.7 5.2 0.00 0.00 0.00 99 1016.3
20260905140805 35 283 4.3 4.3 0.00 0.00 0.00 98 1016.5